Regional Weather Roundup
Issued by NWS Jackson, KY

Home | Current Version | Previous Version | Text Only | Print | Product List | Glossary Off
Versions: 1 2 3 4 5 6 7 8 9 10 11 12 13 14 15 16 17 18 19 20 21 22 23 24 25 26 27 28 29 30 31 32 33 34 35 36 37 38 39 40 41 42 43 44 45 46 47 48 49 50

000
ASUS43 KJKL 011405
RWRJKL

EAST KENTUCKY HOURLY WEATHER ROUNDUP
NATIONAL WEATHER SERVICE JACKSON KY
1000 AM EDT FRI AUG 01 2014

NOTE: "FAIR" INDICATES FEW OR NO CLOUDS BELOW 12,000 FEET WITH
NO SIGNIFICANT WEATHER AND/OR OBSTRUCTIONS TO VISIBILITY.

* THESE REPORTS ARE NOT UNDER NWS QUALITY CONTROL AND MAY NOT
  REPORT WEATHER SUCH AS PRECIPITATION AND FOG.

KYZ079-080-083-085-087-088-110-112-115-119-120-011500
...EASTERN KENTUCKY...

CITY           SKY/WX    TMP DP  RH WIND       PRES   REMARKS
JACKSON        PTSUNNY   74  64  71 CALM      30.13F
LONDON         PTSUNNY   73  63  70 CALM      30.13F
SOMERSET*      SUNNY     70  64  83 CALM      30.13S
MONTICELLO*    SUNNY     73  65  76 CALM      30.13S
WILLIAMSBURG*    N/A     68  66  94 CALM      30.13
MIDDLESBORO*   PTSUNNY   68  63  84 CALM      30.14S
HARLAN APT*    SUNNY     68  61  77 MISG      30.15S
BLACK MTN*       N/A     70  57  64 E2          N/A
PIKEVILLE APT* SUNNY     70  63  78 CALM      30.14S
BIG SANDY*     SUNNY     74  64  70 SE5       30.14S
MOREHEAD APT*  PTSUNNY   73  64  73 CALM      30.15S
$$

KYZ035-036-041-042-044-050-067-078-099-011500
...CENTRAL KENTUCKY...

CITY           SKY/WX    TMP DP  RH WIND       PRES   REMARKS
MT STERLING*   MOSUNNY   70  64  83 CALM      30.15S
FLEMING/MASON* PTSUNNY   72  64  77 E3        30.13F
DANVILLE*      SUNNY     73  63  68 NE3       30.13S
RICHMOND*      MOSUNNY   72  61  68 CALM      30.12S
LEXINGTON      MOSUNNY   77  62  59 NE3       30.12F
FRANKFORT      SUNNY     73  63  70 CALM      30.11S
$$

KYZ091>093-OHZ055-061-077-WVZ005-015-034-035-042-011500
...SOUTHERN OHIO/WEST VIRGINIA...

CITY           SKY/WX    TMP DP  RH WIND       PRES   REMARKS
COVINGTON      MOSUNNY   76  62  62 N3        30.13S
COLUMBUS       SUNNY     77  62  59 CALM      30.12F
DAYTON         MOSUNNY   73  62  68 CALM      30.15S
WILMINGTON     SUNNY     76  65  68 CALM      30.13S
HUNTINGTON     PTSUNNY   72  66  81 CALM      30.12F HAZE
CHARLESTON     PTSUNNY   71  65  81 CALM      30.14S
PINEVILLE*     RAIN      67  66  96 MISG      30.23S
BECKLEY        CLOUDY    65  59  81 SE7       30.22R
BLUEFIELD      CLOUDY    66  57  72 SE8       30.24R
$$

VAZ002-007-008-TNZ017-027-036-066-071-011500
...SOUTHWEST VIRGINIA/EAST TENNESSEE...

CITY           SKY/WX    TMP DP  RH WIND       PRES   REMARKS
WISE*          PTSUNNY   70  57  64 S6        30.21S
JONESVILLE*    SUNNY     73  63  68 E9        30.16S
ABINGDON*      CLOUDY    68  60  75 E10       30.19S
BRISTOL        CLOUDY    70  61  73 CALM      30.16R
KNOXVILLE      MOSUNNY   74  63  68 VRB3      30.10F
OAK RIDGE      CLOUDY    72  64  76 CALM      30.13S
CROSSVILLE     SUNNY     73  63  70 CALM      30.15S
NASHVILLE      MOSUNNY   77  65  66 CALM      30.10R
$$

...KEY TO REMARKS...
VSB - VISIBILITY IN MILES
WCI - WIND CHILL INDEX
HX  - HEAT INDEX

$$


USA.gov is the U.S. government's official web portal to all federal, state and local government web resources and services.